This demonstration page uses our WeatherBlox Daily Observations layout. Learn more.

40.92945, -100.16068

Hourly Observations for December 29, 2015

Temp ( °F °C ) Dew Point ( °F °C ) Humidity (%) Winds ( mph kmh ) Pressure ( in mb ) Visibility ( mi km ) Precip ( " mm )
12:15 am 00:15 Cloudy 21 -6.3 17 -8.6 84 84 NNW 7 11 30.09 1019 10 16.0934 N/A
12:35 am 00:35 Cloudy 21 -6.2 17 -8.4 85 85 NW 6 9 30.09 1019 10 16.0934 N/A
12:55 am 00:55 Cloudy 21 -6.1 17 -8.2 85 85 WNW 5 7 30.09 1019 10 16.0934 N/A
1:15 am 01:15 Cloudy 21 -6 18 -8 86 86 NW 3 6 30.09 1019 10 16.0934 N/A
1:35 am 01:35 Cloudy 22 -5.8 18 -7.8 86 86 NW 3 6 30.09 1019 10 16.0934 N/A
1:55 am 01:55 Cloudy 20 -6.4 17 -8.3 87 87 NNW 3 6 30.09 1019 10 16.0934 N/A
2:15 am 02:15 Cloudy 19 -7 17 -8.5 89 89 Calm 30.09 1019 10 16.0934 N/A
2:35 am 02:35 Cloudy 20 -6.7 17 -8.1 90 90 NNW 3 6 30.09 1019 10 16.0934 N/A
2:55 am 02:55 Cloudy 21 -6 19 -7.5 89 89 NNW 3 6 30.12 1020 10 16.0934 N/A
3:15 am 03:15 Cloudy 22 -5.7 19 -7.2 89 89 Calm 30.12 1020 10 16.0934 N/A
3:35 am 03:35 Cloudy 21 -6.1 19 -7.5 90 90 NNW 5 7 30.12 1020 10 16.0934 N/A
3:55 am 03:55 Cloudy 21 -6.2 18 -7.6 90 90 Calm 30.12 1020 10 16.0934 N/A
4:15 am 04:15 Cloudy 21 -6.2 18 -7.6 90 90 Calm 30.12 1020 10 16.0934 N/A
4:35 am 04:35 Cloudy 22 -5.8 19 -7.2 90 90 Calm 30.12 1020 10 16.0934 N/A
4:55 am 04:55 Cloudy 21 -6 19 -7.3 91 91 Calm 30.12 1020 10 16.0934 N/A
5:15 am 05:15 Cloudy 21 -6.3 18 -7.6 91 91 Calm 30.15 1021 10 16.0934 N/A
5:35 am 05:35 Cloudy 20 -6.5 18 -7.7 91 91 Calm 30.15 1021 10 16.0934 N/A
5:55 am 05:55 Cloudy 20 -6.4 18 -7.7 91 91 WNW 3 6 30.15 1021 10 16.0934 N/A
6:15 am 06:15 Cloudy 21 -6.2 18 -7.6 90 90 Calm 30.15 1021 10 16.0934 N/A
6:35 am 06:35 Cloudy 21 -6.2 18 -7.6 90 90 Calm 30.15 1021 10 16.0934 N/A
6:55 am 06:55 Cloudy 21 -6.2 18 -7.6 90 90 NW 3 6 30.15 1021 10 16.0934 N/A
7:15 am 07:15 Cloudy 20 -6.6 17 -8.1 89 89 NNW 5 7 30.18 1022 10 16.0934 N/A
7:35 am 07:35 Cloudy 19 -7.5 16 -9 89 89 Calm 30.18 1022 10 16.0934 N/A
7:55 am 07:55 Cloudy 19 -7.1 17 -8.5 90 90 Calm 30.18 1022 10 16.0934 N/A
8:15 am 08:15 Cloudy 20 -6.7 17 -8.1 90 90 Calm 30.18 1022 10 16.0934 N/A
8:35 am 08:35 Cloudy 21 -6.2 18 -7.6 90 90 Calm 30.18 1022 10 16.0934 N/A
8:55 am 08:55 Cloudy 22 -5.8 19 -7.4 89 89 Calm 30.21 1023 10 16.0934 N/A
9:15 am 09:15 Cloudy 22 -5.3 19 -7.1 87 87 NNE 5 7 30.21 1023 10 16.0934 N/A
9:35 am 09:35 Cloudy 23 -5 19 -7.4 83 83 NE 5 7 30.21 1023 10 16.0934 N/A
9:55 am 09:55 Cloudy 23 -5 18 -7.7 82 82 Calm 30.21 1023 10 16.0934 N/A
10:15 am 10:15 Cloudy 23 -4.8 19 -7.5 82 82 Calm 30.21 1023 10 16.0934 N/A
10:35 am 10:35 Cloudy 24 -4.7 18 -7.6 80 80 Calm 30.21 1023 10 16.0934 N/A
10:55 am 10:55 Cloudy 24 -4.6 18 -7.6 80 80 Calm 30.24 1024 10 16.0934 N/A
11:15 am 11:15 Cloudy 24 -4.5 18 -7.6 79 79 Calm 30.18 1022 10 16.0934 N/A
11:35 am 11:35 Cloudy 24 -4.2 19 -7.5 78 78 Calm 30.21 1023 10 16.0934 N/A
11:55 am 11:55 Cloudy 25 -4.1 19 -7.4 78 78 Calm 30.18 1022 10 16.0934 N/A
12:15 pm 12:15 Cloudy 25 -4 19 -7.5 77 77 Calm 30.18 1022 10 16.0934 N/A
12:35 pm 12:35 Cloudy 25 -3.9 18 -7.6 76 76 ENE 3 6 30.18 1022 10 16.0934 N/A
12:55 pm 12:55 Cloudy 25 -3.7 19 -7.3 76 76 Calm 30.18 1022 10 16.0934 N/A
1:15 pm 13:15 Cloudy 26 -3.4 19 -7.1 76 76 Calm 30.18 1022 10 16.0934 N/A
1:35 pm 13:35 Cloudy 26 -3.5 19 -7.4 75 75 Calm 30.18 1022 10 16.0934 N/A
1:55 pm 13:55 Cloudy 26 -3.5 19 -7.4 75 75 Calm 30.18 1022 10 16.0934 N/A
2:15 pm 14:15 Cloudy 26 -3.5 19 -7.2 76 76 Calm 30.18 1022 10 16.0934 N/A
2:35 pm 14:35 Cloudy 26 -3.5 19 -7 77 77 Calm 30.18 1022 10 16.0934 N/A
2:55 pm 14:55 Cloudy 26 -3.5 20 -6.9 78 78 Calm 30.18 1022 10 16.0934 N/A
3:15 pm 15:15 Cloudy 26 -3.3 20 -6.6 78 78 Calm 30.18 1022 10 16.0934 N/A
3:35 pm 15:35 Cloudy 26 -3.1 20 -6.6 77 77 Calm 30.18 1022 10 16.0934 N/A
3:55 pm 15:55 Cloudy 26 -3.2 20 -6.6 78 78 Calm 30.18 1022 10 16.0934 N/A
4:15 pm 16:15 Cloudy 26 -3.3 20 -6.8 77 77 Calm 30.18 1022 10 16.0934 N/A
4:35 pm 16:35 Cloudy 26 -3.3 20 -6.7 78 78 Calm 30.18 1022 10 16.0934 N/A
4:55 pm 16:55 Cloudy 26 -3.3 20 -6.6 78 78 Calm 30.18 1022 10 16.0934 N/A
5:15 pm 17:15 Cloudy 26 -3.5 20 -6.5 80 80 Calm 30.18 1022 10 16.0934 N/A
5:35 pm 17:35 Cloudy 26 -3.5 21 -6.3 81 81 Calm 30.18 1022 10 16.0934 N/A
5:55 pm 17:55 Cloudy 26 -3.6 21 -6.2 82 82 Calm 30.18 1022 10 16.0934 N/A
6:15 pm 18:15 Cloudy 26 -3.6 21 -6.3 82 82 Calm 30.21 1023 10 16.0934 N/A
6:35 pm 18:35 Mostly Cloudy 25 -3.7 20 -6.5 81 81 Calm 30.21 1023 10 16.0934 N/A
6:55 pm 18:55 Cloudy 25 -3.7 20 -6.5 81 81 Calm 30.21 1023 10 16.0934 N/A
7:15 pm 19:15 Cloudy 26 -3.6 21 -6.1 83 83 Calm 30.21 1023 10 16.0934 N/A
7:35 pm 19:35 Cloudy 26 -3.6 21 -6 84 84 Calm 30.21 1023 10 16.0934 N/A
7:55 pm 19:55 Cloudy 26 -3.6 21 -6.2 82 82 E 3 6 30.21 1023 10 16.0934 N/A
8:15 pm 20:15 Cloudy 26 -3.6 21 -6.1 83 83 ESE 3 6 30.21 1023 10 16.0934 N/A
8:35 pm 20:35 Cloudy 26 -3.6 21 -6.2 82 82 Calm 30.24 1024 10 16.0934 N/A
8:55 pm 20:55 Cloudy 26 -3.6 21 -6.1 83 83 Calm 30.24 1024 10 16.0934 N/A
9:15 pm 21:15 Cloudy 26 -3.6 21 -6.1 83 83 Calm 30.24 1024 10 16.0934 N/A
9:35 pm 21:35 Cloudy 26 -3.6 21 -6 84 84 NE 3 6 30.24 1024 10 16.0934 N/A
9:55 pm 21:55 Cloudy 25 -3.7 21 -5.9 85 85 Calm 30.24 1024 10 16.0934 N/A
10:15 pm 22:15 Cloudy 25 -3.7 22 -5.7 86 86 Calm 30.24 1024 10 16.0934 N/A
10:35 pm 22:35 Cloudy 25 -3.7 22 -5.6 87 87 Calm 30.24 1024 10 16.0934 N/A
10:55 pm 22:55 Cloudy 26 -3.6 22 -5.5 87 87 Calm 30.24 1024 10 16.0934 N/A
11:15 pm 23:15 Cloudy with Light Snow 25 -3.7 22 -5.5 87 87 Calm 30.24 1024 3 4.82802 N/A
11:35 pm 23:35 Cloudy with Light Snow 25 -3.8 22 -5.3 89 89 Calm 30.27 1025 4 6.43736 N/A
11:55 pm 23:55 Cloudy with Light Snow 25 -4.1 22 -5.5 90 90 E 3 6 30.27 1025 3 4.82802 N/A

Powered by AerisWeather